La Grande, OR

11:12 AM PST on December 07, 2019 (GMT -0800)
La Grande-Union County

Weather History for KLGD - September, 2019

Change the Weather History Date:

Wednesday, September 4, 2019

  Actual Average Record
Temperature  
Mean Temperature 76 °F -  
Max Temperature 90 °F 76 °F 99 °F (1988)
Min Temperature 62 °F 44 °F 33 °F (2015)
Cooling Degree Days 10    
Growing Degree Days 26 (Base 50)    
Moisture  
Dew Point 46 °F    
Average Humidity 38    
Maximum Humidity 58    
Minimum Humidity 20    
Precipitation  
Precipitation 0.00 in - - ()
Sea Level Pressure  
Sea Level Pressure 30.43 in    
Wind  
Wind Speed 9 mph (NW)    
Max Wind Speed 16 mph    
Max Gust Speed -    
Visibility 10 miles    
Events      
Averages and records for this station are not official NWS values.
T = Trace of Precipitation, MM = Missing Value Source: NWS Daily Summary

Daily Weather History Graph

Daily Weather History Graph

Search for Another Location

Airport or City:

Astronomy

Sep. 04, 2019 Rise Set
Actual Time 6:17 AM PDT 7:24 PM PDT
Civil Twilight 5:46 AM PDT 7:54 PM PDT
Nautical Twilight 5:10 AM PDT 8:30 PM PDT
Astronomical Twilight 4:32 AM PDT 9:08 PM PDT
Moon 12:40 PM PDT (9/4) 10:43 PM PDT (9/4)
Length of Visible Light 14h 07m
Length of Day
13h 06m
Waxing Crescent, 36% of the Moon is Illuminated
Sep 4
Waxing Crescent
Sep 5
First Quarter
Sep 13
Full
Sep 21
Last Quarter
Sep 28
New

Hourly Weather History & Observations

Time (PDT) Temp. Dew Point Humidity Pressure Visibility Wind Dir Wind Speed Gust Speed Precip Events Conditions
12:56 AM 69.1 °F 48.0 °F 47% 30.44 in 10.0 mi WNW 11.5 mph - N/A   Clear
1:56 AM 66.9 °F 45.0 °F 45% 30.45 in 10.0 mi WNW 13.8 mph - N/A   Clear
2:56 AM 66.0 °F 44.1 °F 45% 30.45 in 10.0 mi West 16.1 mph - N/A   Clear
3:56 AM 64.9 °F 45.0 °F 48% 30.46 in 10.0 mi WNW 12.7 mph - N/A   Clear
4:56 AM 64.0 °F 46.0 °F 52% 30.46 in 10.0 mi WNW 12.7 mph - N/A   Clear
6:56 AM 62.1 °F 46.9 °F 58% 30.47 in 10.0 mi WNW 9.2 mph - N/A   Clear
7:56 AM 63.0 °F 48.0 °F 58% 30.49 in 10.0 mi NNE 4.6 mph - N/A   Clear
8:56 AM 66.9 °F 46.9 °F 49% 30.49 in 10.0 mi North 6.9 mph - N/A   Clear
9:56 AM 70.0 °F 46.0 °F 42% 30.49 in 10.0 mi North 3.5 mph - N/A   Clear
10:56 AM 73.9 °F 46.9 °F 38% 30.48 in 7.0 mi Variable 4.6 mph - N/A   Clear
11:56 AM 77.0 °F 45.0 °F 32% 30.46 in 10.0 mi Calm Calm - N/A   Clear
12:56 PM 82.0 °F 46.0 °F 28% 30.44 in 10.0 mi Calm Calm - N/A   Clear
1:56 PM 86.0 °F 44.1 °F 23% 30.42 in 8.0 mi ESE 5.8 mph - N/A   Clear
2:56 PM 88.0 °F 45.0 °F 22% 30.40 in 10.0 mi Variable 5.8 mph - N/A   Clear
3:56 PM 89.1 °F 44.1 °F 21% 30.39 in 10.0 mi North 3.5 mph - N/A   Clear
4:56 PM 89.1 °F 43.0 °F 20% 30.38 in 10.0 mi North 6.9 mph - N/A   Clear
5:56 PM 88.0 °F 44.1 °F 22% 30.37 in 10.0 mi North 6.9 mph - N/A   Clear
6:56 PM 81.0 °F 48.9 °F 33% 30.38 in 10.0 mi NNW 6.9 mph - N/A   Clear
7:56 PM 78.1 °F 45.0 °F 31% 30.39 in 10.0 mi NW 8.1 mph - N/A   Clear
8:56 PM 73.9 °F 44.1 °F 34% 30.41 in 10.0 mi NW 10.4 mph - N/A   Clear
9:56 PM 71.1 °F 46.0 °F 41% 30.41 in 10.0 mi WNW 11.5 mph - N/A   Clear
10:56 PM 66.0 °F 46.0 °F 48% 30.42 in 10.0 mi NW 6.9 mph - N/A   Clear
11:56 PM 64.0 °F 44.1 °F 48% 30.43 in 10.0 mi West 3.5 mph - N/A   Clear